Regional Weather Roundup
Issued by NWS Charleston, WV

Home | Current Version | Previous Version | Text Only | Print | Product List | Glossary On
Versions: 1 2 3 4 5 6 7 8 9 10 11 12 13 14 15 16 17 18 19 20 21 22 23 24 25 26 27 28 29 30 31 32 33 34 35 36 37 38 39 40 41 42 43 44 45 46 47 48 49 50
000
ASUS41 KRLX 251810
RWRRLX
CRWRWRRLX ALL
West Virginia Regional Weather Roundup
National Weather Service Charleston WV
Issued by National Weather Service Pittsburgh PA
200 PM EDT THU AUG 25 2016

Note: "fair" indicates few or no clouds below 12,000 feet with no
significant weather and/or obstructions to visibility.

WVZ003-251900-
Northern Panhandle of West Virginia

CITY           SKY/WX    TMP DP  RH WIND       PRES   REMARKS
WHEELING       PTSUNNY   86  73  65 SW12      30.08F HX  93
$$

WVZ009-251900-
Northwest West Virginia

CITY           SKY/WX    TMP DP  RH WIND       PRES   REMARKS
PARKERSBURG    PTSUNNY   88  74  63 VRB6      30.11F HX  96
$$

WVZ006-251900-
Western West Virginia

CITY           SKY/WX    TMP DP  RH WIND       PRES   REMARKS
HUNTINGTON     MOSUNNY   87  72  60 SW10      30.11F HX  93
$$

WVZ015-251900-
West Central West Virginia

CITY           SKY/WX    TMP DP  RH WIND       PRES   REMARKS
CHARLESTON     CLOUDY    86  73  65 SW8       30.12F HX  93
$$

WVZ031-251900-
North Central West Virginia

CITY           SKY/WX    TMP DP  RH WIND       PRES   REMARKS
CLARKSBURG     CLOUDY    82  73  74 W6        30.12S HX  87
MORGANTOWN     PTSUNNY   82  72  71 VRB6      30.12F HX  87
$$

WVZ035-042-251900-
South Central West Virginia

CITY           SKY/WX    TMP DP  RH WIND       PRES   REMARKS
BECKLEY        CLOUDY    79  69  71 W9        30.24S HX  81
BLUEFIELD      CLOUDY    77  69  76 NW7       30.26F
$$

WVZ045-251900-
Greenbrier Valley of West Virginia

CITY           SKY/WX    TMP DP  RH WIND       PRES   REMARKS
LEWISBURG      PTSUNNY   81  70  69 SW6       30.21S HX  84
$$

WVZ047-251900-
Northern Mountains of West Virginia

CITY           SKY/WX    TMP DP  RH WIND       PRES   REMARKS
ELKINS         PTSUNNY   81  71  71 S6        30.17F HX  85
$$

WVZ052-251900-
Eastern Panhandle of West Virginia

CITY           SKY/WX    TMP DP  RH WIND       PRES   REMARKS
MARTINSBURG    PTSUNNY   84  71  65 S7        30.05F HX  89
PETERSBURG     PTSUNNY   88  73  60 SW5       30.08F HX  95
$$




USA.gov is the U.S. government's official web portal to all federal, state and local government web resources and services.